Location: Moscow
(38.3171°N, 79.0889°W)
Time: 02:04:01
(UTC+00:00)

Cosmos 2278 Rocket - Pass Details

Date: 07 November 2025
Orbit: 841 x 843 km, 71.0° (Epoch: 08 December)

Event Time Altitude Azimuth Distance (km) Brightness Sun altitude
Rises 23:38:18 0° 164° (SSE) 3,381 5.3 -17.6°
Reaches altitude 10° 23:41:14 10° 150° (SSE) 2,451 4.4 -18.1°
Enters shadow 23:43:14 18° 132° (SE) 1,970 3.7 -18.5°
